Location: B?lite?ti
(46.2833°N, 22.7333°E)
Time: 17:02:11
(UTC+00:00)

USA 234 - Pass Details

Date: 24 January 2021
Orbit: 1100 x 1107 km, 123.0° (Epoch: 26 February)

Event Time Altitude Azimuth Distance (km) Brightness Sun altitude
Exits shadow 17:29:27 31° 50° (NE) 1,818 4.0 -21.8°
Maximum altitude 17:31:30 39° 13° (NNE) 1,600 3.9 -22.2°
Drops below altitude 10° 17:37:27 10° 307° (NW) 2,968 6.2 -23.2°
Sets 17:40:05 0° 300° (WNW) 3,927 7.0 -23.7°
